TimeMST,TemperatureF,Dew PointF,Humidity,Sea Level PressureIn,VisibilityMPH,Wind Direction,Wind SpeedMPH,Gust SpeedMPH,PrecipitationIn,Events,Conditions,WindDirDegrees,DateUTC
12:30 AM,28.4,24.8,86,30.29,6.0,ESE,11.5,-,0.00,Snow,Light Snow,110,2013-01-04 07:30:00
12:48 AM,28.4,24.8,86,30.29,5.0,ESE,11.5,-,0.00,Snow,Light Snow,110,2013-01-04 07:48:00
12:53 AM,28.0,24.1,85,30.32,5.0,ESE,11.5,-,0.00,Snow,Light Snow,110,2013-01-04 07:53:00
1:17 AM,28.4,24.8,86,30.28,4.0,ESE,9.2,-,0.00,Snow,Light Snow,110,2013-01-04 08:17:00
1:53 AM,28.0,25.0,88,30.31,9.0,East,9.2,-,0.00,,Overcast,100,2013-01-04 08:53:00
2:33 AM,28.4,24.8,86,30.28,10.0,East,6.9,-,N/A,,Overcast,100,2013-01-04 09:33:00
2:53 AM,28.0,25.0,88,30.31,10.0,ESE,8.1,-,N/A,,Overcast,110,2013-01-04 09:53:00
3:34 AM,28.4,24.8,86,30.29,10.0,East,8.1,-,N/A,,Overcast,90,2013-01-04 10:34:00
3:53 AM,27.0,25.0,92,30.31,10.0,East,6.9,-,N/A,,Overcast,90,2013-01-04 10:53:00
5:53 AM,27.0,24.1,89,30.32,4.0,East,8.1,-,0.00,Snow,Light Snow,90,2013-01-04 12:53:00
6:53 AM,27.0,24.1,89,30.32,10.0,East,5.8,-,0.00,,Overcast,90,2013-01-04 13:53:00
7:53 AM,27.0,24.1,89,30.34,6.0,East,5.8,-,N/A,,Overcast,90,2013-01-04 14:53:00
8:53 AM,28.0,24.1,85,30.36,7.0,East,6.9,-,0.00,,Overcast,100,2013-01-04 15:53:00
9:33 AM,28.4,24.8,86,30.34,3.0,East,5.8,-,0.00,Snow,Light Snow,100,2013-01-04 16:33:00
9:42 AM,28.4,24.8,86,30.34,2.5,East,5.8,-,0.00,Snow,Light Snow,90,2013-01-04 16:42:00
9:51 AM,28.4,24.8,86,30.34,3.0,East,5.8,-,0.00,Snow,Light Snow,100,2013-01-04 16:51:00
9:53 AM,28.9,25.0,85,30.37,3.0,East,5.8,-,0.00,Snow,Light Snow,90,2013-01-04 16:53:00
10:22 AM,30.2,24.8,80,30.34,7.0,ESE,5.8,-,0.00,,Overcast,110,2013-01-04 17:22:00
10:53 AM,30.0,26.1,85,30.36,5.0,East,5.8,-,0.00,,Overcast,90,2013-01-04 17:53:00
11:53 AM,32.0,27.0,82,30.33,5.0,East,4.6,-,0.00,Snow,Light Snow,80,2013-01-04 18:53:00
12:53 PM,33.1,26.1,75,30.29,10.0,SE,5.8,-,0.00,,Overcast,130,2013-01-04 19:53:00
1:53 PM,34.0,26.1,73,30.26,10.0,Calm,Calm,-,N/A,,Overcast,0,2013-01-04 20:53:00
2:17 PM,33.8,24.8,70,30.25,10.0,Calm,Calm,-,N/A,,Overcast,0,2013-01-04 21:17:00
2:26 PM,35.6,24.8,65,30.24,10.0,Calm,Calm,-,N/A,,Mostly Cloudy,0,2013-01-04 21:26:00
2:53 PM,34.0,26.1,73,30.26,10.0,Calm,Calm,-,N/A,,Partly Cloudy,0,2013-01-04 21:53:00
3:48 PM,35.6,26.6,70,30.25,10.0,SSW,6.9,-,N/A,,Mostly Cloudy,200,2013-01-04 22:48:00
3:53 PM,35.1,26.1,70,30.26,10.0,South,6.9,-,N/A,,Mostly Cloudy,190,2013-01-04 22:53:00
4:53 PM,33.1,25.0,72,30.27,10.0,South,5.8,-,N/A,,Mostly Cloudy,190,2013-01-04 23:53:00
5:01 PM,33.8,24.8,70,30.25,10.0,South,5.8,-,N/A,,Scattered Clouds,190,2013-01-05 00:01:00
5:53 PM,30.0,24.1,79,30.28,10.0,SSW,4.6,-,N/A,,Clear,200,2013-01-05 00:53:00
6:53 PM,28.9,25.0,85,30.30,10.0,SW,6.9,-,N/A,,Clear,230,2013-01-05 01:53:00
7:53 PM,26.1,24.1,92,30.32,10.0,SW,3.5,-,N/A,,Clear,220,2013-01-05 02:53:00
8:53 PM,25.0,23.0,92,30.32,10.0,SW,4.6,-,N/A,,Clear,220,2013-01-05 03:53:00
9:53 PM,21.9,19.9,92,30.35,9.0,WNW,4.6,-,N/A,,Clear,290,2013-01-05 04:53:00
10:53 PM,23.0,21.9,96,30.34,9.0,West,8.1,-,N/A,,Clear,270,2013-01-05 05:53:00
11:53 PM,21.9,21.0,96,30.33,8.0,WSW,3.5,-,N/A,,Clear,240,2013-01-05 06:53:00